User: anonymous   Login
Location: *
(37.5724°S, 58.0067°E)
Time: 16:40:04
(UTC+00:00)
Language:

Cosmos 1371 Rocket - Orbit

View from above orbital plane
View from above orbital plane
View from above satellite
View from above satellite

Ground track
Ground track

The orbit data is extracted from the following two-line orbital elements,

1 13242U 82051B   20337.35523462  .00000107  00000-0  45536-4 0  9998
2 13242  74.0427 193.4444 0023827  83.7131 276.6734 14.36000850 14795
Epoch (UTC): 02 December 2020 08:31:32
Eccentricity: 0.0023827
inclination: 74.0427°
perigee height: 755 km
apogee height: 789 km
right ascension of ascending node: 193.4444°
argument of perigee: 83.7131°
revolutions per day: 14.36000850
mean anomaly at epoch: 276.6734°
orbit number at epoch: 1479

The dashed part of the orbit path shows where the satellite is in the earth's shadow,  

DLR